Voltar ao catálogo

STARLINK-30098

AtivoComunicaçõesVLEO
NORAD 56292·PAYLOAD·🇺🇸 United States

Lançado Apr 19, 2023 de Cape Canaveral Space Force Station

Loading…

Próximas Passagens (próximas 24 horas)

TLE

AtualizadoSource: CelesTrak SupGP

Época: Sep 14, 2026, 21:31 UTC

1 56292C 23056G   26257.89701389  .00025712  00000+0  93132-3 0  2571
2 56292  43.0034 220.4480 0001355 258.5838 181.7002 15.27565154    14

Acompanhe STARLINK-30098 em tempo real com AllMySat

Download on the App Store